Time,TemperatureF,DewpointF,PressureIn,WindDirection,WindDirectionDegrees,WindSpeedMPH,WindSpeedGustMPH,Humidity,HourlyPrecipIn,Conditions,Clouds,dailyrainin,SolarRadiationWatts/m^2,SoftwareType,DateUTC
2013-06-23 09:34:00,44.0,10.0,-100.00,East,81,4.0,12.0,24,-99.99,,,-99.99,147.000000,,2013-06-23 13:34:00,
2013-06-23 09:43:00,44.0,10.0,-100.00,East,81,4.0,12.0,24,-99.99,,,-99.99,147.000000,,2013-06-23 13:43:00,
2013-06-23 09:54:00,44.0,10.0,-100.00,East,81,4.0,12.0,24,-99.99,,,-99.99,147.000000,,2013-06-23 13:54:00,
2013-06-23 10:04:00,44.0,10.0,-100.00,East,81,4.0,12.0,24,-99.99,,,-99.99,147.000000,,2013-06-23 14:04:00,
2013-06-23 10:34:00,47.0,11.0,-100.00,ESE,118,4.0,14.0,23,0.00,,,-99.99,352.000000,,2013-06-23 14:34:00,
2013-06-23 10:44:00,47.0,11.0,-100.00,ESE,118,4.0,14.0,23,0.00,,,-99.99,352.000000,,2013-06-23 14:44:00,
2013-06-23 10:52:00,47.0,11.0,-100.00,ESE,118,4.0,14.0,23,0.00,,,-99.99,352.000000,,2013-06-23 14:52:00,
2013-06-23 11:05:00,47.0,11.0,-100.00,ESE,118,4.0,14.0,23,0.00,,,-99.99,352.000000,,2013-06-23 15:05:00,
2013-06-23 11:35:00,49.0,13.0,-100.00,East,81,6.0,11.0,23,0.00,,,-99.99,557.000000,,2013-06-23 15:35:00,
2013-06-23 11:43:00,49.0,13.0,-100.00,East,81,6.0,11.0,23,0.00,,,-99.99,557.000000,,2013-06-23 15:43:00,
2013-06-23 11:53:00,49.0,13.0,-100.00,East,81,6.0,11.0,23,0.00,,,-99.99,557.000000,,2013-06-23 15:53:00,
2013-06-23 12:06:00,49.0,13.0,-100.00,East,81,6.0,11.0,23,0.00,,,-99.99,557.000000,,2013-06-23 16:06:00,
2013-06-23 12:36:00,50.0,15.0,-100.00,NE,49,8.0,21.0,24,0.00,,,-99.99,736.000000,,2013-06-23 16:36:00,
2013-06-23 12:43:00,50.0,15.0,-100.00,NE,49,8.0,21.0,24,0.00,,,-99.99,736.000000,,2013-06-23 16:43:00,
2013-06-23 12:53:00,50.0,15.0,-100.00,NE,49,8.0,21.0,24,0.00,,,-99.99,736.000000,,2013-06-23 16:53:00,
2013-06-23 13:03:00,50.0,15.0,-100.00,NE,49,8.0,21.0,24,0.00,,,-99.99,736.000000,,2013-06-23 17:03:00,
2013-06-23 13:34:00,52.0,14.0,-100.00,NE,48,8.0,23.0,22,0.00,,,-99.99,879.000000,,2013-06-23 17:34:00,
2013-06-23 13:43:00,52.0,14.0,-100.00,NE,48,8.0,23.0,22,0.00,,,-99.99,879.000000,,2013-06-23 17:43:00,
2013-06-23 13:53:00,52.0,14.0,-100.00,NE,48,8.0,23.0,22,0.00,,,-99.99,879.000000,,2013-06-23 17:53:00,
2013-06-23 14:01:00,52.0,14.0,-100.00,NE,48,8.0,23.0,22,0.00,,,-99.99,879.000000,,2013-06-23 18:01:00,
2013-06-23 14:34:00,54.0,15.0,-100.00,ENE,65,15.0,26.0,21,0.00,,,-99.99,965.000000,,2013-06-23 18:34:00,
2013-06-23 14:43:00,54.0,15.0,-100.00,ENE,65,15.0,26.0,21,0.00,,,-99.99,965.000000,,2013-06-23 18:43:00,
2013-06-23 14:53:00,54.0,15.0,-100.00,ENE,65,15.0,26.0,21,0.00,,,-99.99,965.000000,,2013-06-23 18:53:00,
2013-06-23 15:01:00,54.0,15.0,-100.00,ENE,65,15.0,26.0,21,0.00,,,-99.99,965.000000,,2013-06-23 19:01:00,
2013-06-23 15:32:00,55.0,18.0,-100.00,NE,56,11.0,23.0,23,0.00,,,-99.99,898.000000,,2013-06-23 19:32:00,
2013-06-23 15:43:00,55.0,18.0,-100.00,NE,56,11.0,23.0,23,0.00,,,-99.99,898.000000,,2013-06-23 19:43:00,
2013-06-23 15:53:00,55.0,18.0,-100.00,NE,56,11.0,23.0,23,0.00,,,-99.99,898.000000,,2013-06-23 19:53:00,
2013-06-23 16:02:00,55.0,18.0,-100.00,NE,56,11.0,23.0,23,0.00,,,-99.99,898.000000,,2013-06-23 20:02:00,
2013-06-23 16:34:00,55.0,15.0,-100.00,NNE,18,8.0,28.0,20,0.00,,,-99.99,858.000000,,2013-06-23 20:34:00,
2013-06-23 16:42:00,55.0,15.0,-100.00,NNE,18,8.0,28.0,20,0.00,,,-99.99,858.000000,,2013-06-23 20:42:00,
2013-06-23 16:53:00,55.0,15.0,-100.00,NNE,18,8.0,28.0,20,0.00,,,-99.99,858.000000,,2013-06-23 20:53:00,
2013-06-23 17:01:00,55.0,15.0,-100.00,NNE,18,8.0,28.0,20,0.00,,,-99.99,858.000000,,2013-06-23 21:01:00,
2013-06-23 17:34:00,54.0,9.0,-100.00,North,5,9.0,23.0,16,0.00,,,-99.99,707.000000,,2013-06-23 21:34:00,
2013-06-23 17:44:00,54.0,9.0,-100.00,North,5,9.0,23.0,16,0.00,,,-99.99,707.000000,,2013-06-23 21:44:00,
2013-06-23 17:52:00,54.0,9.0,-100.00,North,5,9.0,23.0,16,0.00,,,-99.99,707.000000,,2013-06-23 21:52:00,
2013-06-23 18:01:00,54.0,9.0,-100.00,North,5,9.0,23.0,16,0.00,,,-99.99,707.000000,,2013-06-23 22:01:00,
2013-06-23 18:32:00,54.0,10.0,-100.00,NNE,31,8.0,28.0,17,0.00,,,-99.99,528.000000,,2013-06-23 22:32:00,
2013-06-23 18:43:00,54.0,10.0,-100.00,NNE,31,8.0,28.0,17,0.00,,,-99.99,528.000000,,2013-06-23 22:43:00,
2013-06-23 18:53:00,54.0,10.0,-100.00,NNE,31,8.0,28.0,17,0.00,,,-99.99,528.000000,,2013-06-23 22:53:00,
2013-06-23 19:01:00,54.0,10.0,-100.00,NNE,31,8.0,28.0,17,0.00,,,-99.99,528.000000,,2013-06-23 23:01:00,
2013-06-23 19:33:00,52.0,10.0,-100.00,NNE,22,8.0,27.0,18,0.00,,,-99.99,365.000000,,2013-06-23 23:33:00,
2013-06-23 19:44:00,52.0,10.0,-100.00,NNE,22,8.0,27.0,18,0.00,,,-99.99,365.000000,,2013-06-23 23:44:00,
2013-06-23 19:52:00,52.0,10.0,-100.00,NNE,22,8.0,27.0,18,0.00,,,-99.99,365.000000,,2013-06-23 23:52:00,
2013-06-23 20:01:00,52.0,10.0,-100.00,NNE,22,8.0,27.0,18,0.00,,,-99.99,365.000000,,2013-06-24 00:01:00,
2013-06-23 20:43:00,53.0,5.0,-100.00,ENE,64,10.0,20.0,14,0.00,,,-99.99,261.000000,,2013-06-24 00:43:00,
2013-06-23 20:52:00,53.0,5.0,-100.00,ENE,64,10.0,20.0,14,0.00,,,-99.99,261.000000,,2013-06-24 00:52:00,
2013-06-23 21:01:00,53.0,5.0,-100.00,ENE,64,10.0,20.0,14,0.00,,,-99.99,261.000000,,2013-06-24 01:01:00,
2013-06-23 21:32:00,49.0,3.0,-100.00,NNE,33,6.0,22.0,15,0.00,,,-99.99,202.000000,,2013-06-24 01:32:00,
2013-06-23 21:42:00,49.0,3.0,-100.00,NNE,33,6.0,22.0,15,0.00,,,-99.99,202.000000,,2013-06-24 01:42:00,
2013-06-23 21:53:00,49.0,3.0,-100.00,NNE,33,6.0,22.0,15,0.00,,,-99.99,202.000000,,2013-06-24 01:53:00,
2013-06-23 22:02:00,49.0,3.0,-100.00,NNE,33,6.0,22.0,15,0.00,,,-99.99,202.000000,,2013-06-24 02:02:00,
2013-06-23 22:33:00,49.0,5.0,-100.00,NNE,12,5.0,20.0,16,0.00,,,-99.99,75.000000,,2013-06-24 02:33:00,
2013-06-23 22:42:00,49.0,5.0,-100.00,NNE,12,5.0,20.0,16,0.00,,,-99.99,75.000000,,2013-06-24 02:42:00,
2013-06-23 22:53:00,49.0,5.0,-100.00,NNE,12,5.0,20.0,16,0.00,,,-99.99,75.000000,,2013-06-24 02:53:00,
2013-06-23 23:01:00,49.0,5.0,-100.00,NNE,12,5.0,20.0,16,0.00,,,-99.99,75.000000,,2013-06-24 03:01:00,
2013-06-23 23:33:00,46.0,2.0,-100.00,NE,38,7.0,17.0,16,0.00,,,-99.99,13.000000,,2013-06-24 03:33:00,
2013-06-23 23:43:00,46.0,2.0,-100.00,NE,38,7.0,17.0,16,0.00,,,-99.99,13.000000,,2013-06-24 03:43:00,
2013-06-23 23:53:00,46.0,2.0,-100.00,NE,38,7.0,17.0,16,0.00,,,-99.99,13.000000,,2013-06-24 03:53:00,